Location: Newark
(48.6461°N, 4.3644°W)
Time: 02:35:03
(UTC+00:00)

S-56A Canister/Altair - Pass Details

Date: 26 January 2020
Orbit: 633 x 2500 km, 38.9° (Epoch: 26 February)

Event Time Altitude Azimuth Distance (km) Brightness Sun altitude
Rises 00:46:41 0° 260° (W) 3,041 - -60.0°
Reaches altitude 10° 00:50:03 10° 236° (SW) 2,025 - -60.0°
Maximum altitude 00:52:29 14° 202° (SSW) 1,728 - -59.9°
Drops below altitude 10° 00:54:56 10° 168° (SSE) 2,031 - -59.8°
Sets 00:58:19 0° 144° (SE) 3,054 - -59.7°
